Regional Weather Roundup
Issued by NWS

Home | Current Version | Previous Version | Graphics & Text | Print | Product List | Glossary On
Versions: 1 2 3 4 5 6 7 8 9 10 11 12 13 14 15 16 17 18 19 20 21 22 23 24 25 26 27 28 29 30 31 32 33 34 35 36 37 38 39 40 41 42 43 44 45 46
000
ASUS45 KBOU 190107
RWRCO

WEATHER ROUNDUP FOR COLORADO
NATIONAL WEATHER SERVICE DENVER/BOULDER CO
700 PM MDT THU SEP 18 2014

NOTE: "FAIR" INDICATES FEW OR NO CLOUDS BELOW 12000 FEET WITH NO
SIGNIFICANT WEATHER AND/OR OBSTRUCTIONS TO VISIBILITY.

COZ001>005-013-030-031-190200-
...NORTHWEST COLORADO...

CITY           SKY/WX    TMP DP  RH WIND       PRES   REMARKS
CRAIG          CLEAR     71  41  33 SW8       29.97S
HAYDEN         CLEAR     79  37  22 N3        30.00S
MEEKER         CLEAR     75  40  28 SW7       29.99S
MOUNT WERNER   NOT AVBL
STEAMBOAT SPGS CLEAR     74  40  28 CALM      30.02S
WALDEN         CLEAR     70  30  23 CALM      30.13S
$$

COZ006>008-011-190200-
...WEST CENTRAL VALLEYS...

CITY           SKY/WX    TMP DP  RH WIND       PRES   REMARKS
GRAND JUNCTION CLEAR     81  46  29 W5        29.88S
MONTROSE       CLEAR     82  40  22 CALM      29.97R
EAGLE          PTCLDY    81  36  19 SW10      30.01S
RIFLE          CLEAR     81  36  19 SW6       29.92S
DELTA          CLEAR     88  33  14 W8        29.90S
NUCLA          CLEAR     81  37  21 SW8       30.01S
$$

COZ017>023-064>068-190200-
...SOUTHWEST COLORADO...

CITY           SKY/WX    TMP DP  RH WIND       PRES   REMARKS
DURANGO        CLEAR     78  34  20 W13       30.03S
CORTEZ         CLEAR     77  39  25 SW7       29.99S
PAGOSA SPRINGS PTCLDY    74  29  19 CALM      30.11S
TELLURIDE      NOT AVBL
WOLF CREEK PAS MOCLDY    54  28  37 W5        30.46R
$$

COZ009-010-012-014-032>034-037-058>063-190200-
...CENTRAL COLORADO...

CITY           SKY/WX    TMP DP  RH WIND       PRES   REMARKS
ASPEN          CLOUDY    75  34  22 CALM      30.11R
BUENA VISTA    PTCLDY    71  28  19 E13G18    30.14S
COPPER MTN     PTCLDY    59  21  23 SE16      30.46S
BERTHOUD PASS  FAIR      46  45  93 E23G36    30.52S
COTTONWOOD PAS PTCLDY    68  23  18 SE13G20   30.30R
GUNNISON       PTCLDY    72  28  20 SE7       30.11S
KREMMLING      PTCLDY    73  32  21 CALM      30.07S
LEADVILLE      MOCLDY    63  25  23 SE6       30.28R
MONARCH PASS   PTCLDY    54  28  37 NE6       30.57S
SALIDA         PTCLDY    74  28  17 SE9G17    30.17S
SUNLIGHT       CLEAR     59  36  41 W3        30.38S
WILKERSON PASS NOT AVBL
$$

COZ069>075-190200-
...SAN LUIS VALLEY/SANGRE DE CRISTO MOUNTAINS...

CITY           SKY/WX    TMP DP  RH WIND       PRES   REMARKS
ALAMOSA        PTCLDY    74  32  21 W3        30.11R
LA VETA PASS   CLEAR     55  30  38 NE12G21   30.35S
SAGUACHE       NOT AVBL
$$

COZ035-036-038>040-190200-
...NORTHERN COLORADO FRONT RANGE...

CITY           SKY/WX    TMP DP  RH WIND       PRES   REMARKS
DENVER INTL AP PTCLDY    77  35  21 S12       29.94R
DMNS CITY PARK   N/A     81  32  16 S8G15     29.93S
AURORA         PTCLDY    78  35  20 SE13      29.97S
FRONT RANGE AP NOT AVBL
ERIE MUNI ARPT NOT AVBL
BOULDER MUN AP CLEAR     77  43  29 W3        29.92S
CENTENNIAL     PTCLDY    78  35  21 S13       29.98S
BROOMFIELD     PTCLDY    82  32  16 SE8       29.96
FORT COLLINS   CLEAR     81  36  19 E5        29.89S
LONGMONT       CLEAR     74  53  46 NW3       29.92S
$$

COZ041-046-047-076>085-087-088-190200-
...PIKES PEAK/PALMER DIVIDE AND SOUTHERN FOOTHILLS...

CITY           SKY/WX    TMP DP  RH WIND       PRES   REMARKS
COLO. SPRINGS  CLEAR     75  30  19 SE8       30.06S
A. F. ACADEMY  CLEAR     74  30  19 SE13      30.07R
ELLICOTT       NOT AVBL
FALCON         CLEAR     68  32  26 S8        30.12S
FORT CARSON    CLEAR     73  35  24 SE10      30.02S
LIMON          CLEAR     75  33  21 S8        29.99S
MONUMENT HILL  CLEAR     70  32  24 S13       30.10S
TRINIDAD       CLEAR     75  49  39 SE14      30.05R
$$

COZ042>045-048>051-090-091-190200-
...NORTHEAST COLORADO...

CITY           SKY/WX    TMP DP  RH WIND       PRES   REMARKS
GREELEY ARPT   CLEAR     79  43  27 E7        29.89S
AKRON          CLEAR     77  56  48 E9        29.93S
BURLINGTON     CLEAR     80  45  28 S13       29.94R
WRAY           CLEAR     75  64  68 E14G20    29.89S
STERLING       CLEAR     81  57  44 SE8       29.86F
HOLYOKE        CLEAR     73  64  73 SE9       29.90F
FORT MORGAN    CLEAR     77  50  38 E9        29.90F
$$

COZ086-089-092>099-190200-
...SOUTHEAST COLORADO...

CITY           SKY/WX    TMP DP  RH WIND       PRES   REMARKS
PUEBLO         CLEAR     83  36  18 SE13      29.93R
LA JUNTA       CLEAR     81  50  33 S14       29.94R
LAMAR          CLEAR     80  54  40 S12       29.92R
SPRINGFIELD      N/A     72  56  57 S9        30.00R
$$



USA.gov is the U.S. government's official web portal to all federal, state and local government web resources and services.